Flag for U.S.A. Weather past 2 weeks in Worcester, Massachusetts, U.S.A.

Now
28 °F

Light snow. Ice fog.


Feels Like: 21 °F
Forecast: 18 / 34 °F
Wind: 7 mph from West

Location: Worcester Regional Airport

Current Time: Jan 30, 2015 at 9:24:30 AM

Latest Report: Jan 30, 2015 at 8:54 AM


Visibility: 1 mi

Pressure: 29.80 "Hg

Humidity: 96%

Dew point: 27 °F

Location of WorcesterLocation

Historic Weather in Worcester — Graph

°F

Worcester temperature yesterday

Maximum temperature yesterday: 30 °F (at 2:54 PM)
Minimum temperature yesterday: 8 °F (at 3:54 AM)
Average temperature yesterday: 22 °F

Past Weeks' High & Low Weather Summary

 TemperatureHumidityPressure
High47 °F (Jan 18, 7:54 PM)100% (Jan 18, 11:54 AM)30.35 "Hg (Jan 18, 11:54 AM)
Low3 °F (Jan 17, 4:54 AM)22% (Jan 29, 12:54 PM)29.17 "Hg (Jan 24, 5:01 PM)
Average23 °F68%29.92 "Hg
* Reported Jan 15 7:54 AM — Jan 30 7:54 AM, Worcester, Weather by CustomWeather, © 2014

Note: Actual official high and low records may vary slightly from our data, if they occured in-between our weather recording intervals... More about our weather records

Advertising

Worcester weather history for previous 24 hours

 ConditionsComfort  
Time TempWeatherWind HumidityBarometerVisibility
7:54 AM
Jan 30
27 °FLight snow. Ice fog.3 mph100%29.81 "Hg1 mi
6:54 AM27 °FIce fog.3 mph100%29.83 "Hg2 mi
5:54 AM26 °FIce fog.3 mph100%29.85 "Hg6 mi
4:54 AM26 °FLow clouds.5 mph96%29.86 "Hg10 mi
3:54 AM25 °FLight snow. Ice fog.7 mph100%29.88 "Hg2 mi
2:54 AM24 °FLight snow. Ice fog.5 mph100%29.91 "Hg4 mi
1:54 AM24 °FLight snow. Ice fog.6 mph96%29.95 "Hg4 mi
12:54 AM25 °FLow clouds.5 mph81%29.98 "Hg10 mi
11:54 PM
Jan 29
25 °FOvercast.6 mph81%30.02 "Hg10 mi
10:54 PM25 °FOvercast.7 mph78%30.05 "Hg10 mi
10:04 PM25 °FMostly cloudy.8 mph78%30.02 "Hg10 mi
9:54 PM25 °FMostly cloudy.10 mph75%30.07 "Hg10 mi
8:54 PM25 °FMostly cloudy.10 mph66%30.09 "Hg10 mi
7:54 PM26 °FOvercast.8 mph55%30.10 "Hg10 mi
6:54 PM26 °FOvercast.8 mph57%30.12 "Hg10 mi
5:54 PM27 °FPassing clouds.8 mph58%30.14 "Hg10 mi
4:54 PM27 °FSunny.7 mph49%30.15 "Hg10 mi
3:54 PM30 °FSunny.7 mph34%30.16 "Hg10 mi
2:54 PM30 °FSunny.8 mph27%30.18 "Hg10 mi
1:54 PM29 °FSunny.7 mph26%30.20 "Hg10 mi
12:54 PM28 °FSunny.No wind22%30.22 "Hg10 mi
11:54 AM26 °FSunny.6 mph26%30.25 "Hg10 mi
10:54 AM25 °FSunny.3 mph24%30.30 "Hg10 mi
9:54 AM24 °FSunny.3 mph26%30.30 "Hg10 mi
Weather by CustomWeather, © 2014

See weather overviewHow to use our weather pages